Location: Unspecified
(34.4950°S, 58.5160°W)
Time: 13:41:55
(UTC+00:00)

Daily predictions for brighter satellites

Satellite Brightness Start Highest point End
(mag) Time Altitude Azimuth Time Altitude Azimuth Time Altitude Azimuth
SL-08 R/B 3.7 23:23:31 10° N 23:28:23 73° WNW 23:33:15 10° SSW
CZ-4C R/B 3.3 23:32:46 10° NNW 23:41:59 89° ENE 23:49:56 10° SSE
DELTA 2 R/B (1) 3.9 23:38:52 10° WNW 23:44:26 73° SSW 23:50:01 10° ESE
SPOT 5 4.2 23:41:31 10° SE 23:45:47 24° E 23:49:56 10° NNE
COBE Rocket 4.3 23:42:56 10° N 23:48:04 72° W 23:53:16 10° SSW
Cosmos 1470 2.9 23:45:23 10° NNE 23:48:38 40° E 23:51:56 10° SSE
Cosmos 1680 Rocket 3.8 23:44:56 10° N 23:50:00 48° ENE 23:55:08 10° SSE
BlueWalker 3 2.0 23:51:24 10° NW 23:55:02 75° SW 23:58:42 10° SE
CZ-4 R/B 2.3 23:53:01 10° SE 23:56:20 26° E 23:59:07 13° NNE
